Weather History for Roseburg, OR

Change the Weather History Date:

Friday, June 21, 2013

  Actual Average Record
Temperature  
Mean Temperature 65 °F 65 °F  
Max Temperature 78 °F 77 °F 101 °F (1990)
Min Temperature 52 °F 53 °F 39 °F (1956)
Degree Days  
Heating Degree Days 0 2  
Month to date heating degree days 32 69  
Since 1 June heating degree days 32 69  
Since 1 July heating degree days 3628 4052  
Cooling Degree Days 0 2  
Month to date cooling degree days 49 24  
Year to date cooling degree days 83 44  
Since 1 June cooling degree days 49 24  
Growing Degree Days 14 (Base 50)    
Moisture  
Dew Point 47 °F    
Average Humidity 56    
Maximum Humidity 83    
Minimum Humidity 29    
Precipitation  
Precipitation 0.00 in 0.02 in 0.41 in (1963)
Month to date precipitation 0.03 1.04  
Year to date precipitation 7.62 18.67  
Sea Level Pressure  
Sea Level Pressure 30.13 in    
Wind  
Wind Speed 3 mph (North)    
Max Wind Speed 13 mph    
Max Gust Speed 17 mph    
Visibility 10 miles    
Events      
T = Trace of Precipitation, MM = Missing Value Source: NWS Daily Summary

Daily Weather History Graph

Daily Weather History Graph

Search for Another Location

Airport:

Trip Planner

Search our weather history database for the weather conditions in past years. The results will help you decide how hot, cold, wet, or windy it might be!

Date:

Astronomy

Jun. 21, 2013 Rise Set
Actual Time 5:33 AM PDT 8:57 PM PDT
Civil Twilight 4:57 AM PDT 9:32 PM PDT
Nautical Twilight 4:11 AM PDT 10:19 PM PDT
Astronomical Twilight 3:13 AM PDT 11:17 PM PDT
Moon 7:11 PM PDT (6/21) 3:56 AM PDT (6/21)
Length of Visible Light 16h 34m
Length of Day
15h 23m
Waxing Gibbous, 96% of the Moon is Illuminated
Jun 21
Waxing Gibbous
Jun 23
Full
Jun 29
Last Quarter
Jul 8
New
Jul 15
First Quarter

Hourly Weather History & Observations

Time (PDT) Temp. Dew Point Humidity Pressure Visibility Wind Dir Wind Speed Gust Speed Precip Events Conditions
12:53 AM 55.0 °F 48.0 °F 77% 30.15 in 10.0 mi Calm Calm - N/A   Clear
1:10 AM 53.6 °F 48.2 °F 82% 30.15 in 10.0 mi Calm Calm - N/A   Mostly Cloudy
1:26 AM 53.6 °F 48.2 °F 82% 30.15 in 10.0 mi Calm Calm - N/A   Scattered Clouds
1:53 AM 53.1 °F 46.9 °F 80% 30.15 in 10.0 mi Calm Calm - N/A   Scattered Clouds
2:00 AM 53.6 °F 48.2 °F 82% 30.14 in 10.0 mi Calm Calm - N/A   Mostly Cloudy
2:53 AM 54.0 °F 48.0 °F 80% 30.15 in 10.0 mi Calm Calm - N/A   Overcast
3:24 AM 53.6 °F 48.2 °F 82% 30.14 in 10.0 mi Calm Calm - N/A   Scattered Clouds
3:53 AM 53.1 °F 48.0 °F 83% 30.14 in 10.0 mi Calm Calm - N/A   Partly Cloudy
4:53 AM 53.1 °F 48.0 °F 83% 30.14 in 10.0 mi Calm Calm - N/A   Scattered Clouds
5:01 AM 51.8 °F 48.2 °F 88% 30.14 in 10.0 mi Calm Calm - N/A   Mostly Cloudy
5:53 AM 53.1 °F 48.0 °F 83% 30.15 in 10.0 mi NNW 3.5 mph - N/A   Overcast
6:53 AM 54.0 °F 48.9 °F 83% 30.16 in 10.0 mi Calm Calm - N/A   Overcast
7:53 AM 55.0 °F 48.0 °F 77% 30.17 in 10.0 mi Calm Calm - N/A   Mostly Cloudy
8:53 AM 57.0 °F 48.9 °F 74% 30.18 in 10.0 mi Calm Calm - N/A   Overcast
9:53 AM 59.0 °F 48.9 °F 69% 30.18 in 10.0 mi Calm Calm - N/A   Scattered Clouds
10:53 AM 63.0 °F 48.9 °F 60% 30.17 in 10.0 mi North 5.8 mph - N/A   Clear
11:53 AM 66.0 °F 48.9 °F 54% 30.16 in 10.0 mi Calm Calm - N/A   Partly Cloudy
12:53 PM 68.0 °F 48.9 °F 50% 30.14 in 10.0 mi Calm Calm - N/A   Clear
1:53 PM 73.0 °F 46.9 °F 39% 30.13 in 10.0 mi NNE 10.4 mph - N/A   Partly Cloudy
2:53 PM 75.0 °F 44.1 °F 33% 30.11 in 10.0 mi North 5.8 mph - N/A   Clear
3:53 PM 75.9 °F 44.1 °F 32% 30.10 in 10.0 mi North 9.2 mph - N/A   Partly Cloudy
4:53 PM 75.9 °F 45.0 °F 33% 30.08 in 10.0 mi NNE 6.9 mph 16.1 mph N/A   Clear
5:53 PM 75.9 °F 43.0 °F 31% 30.08 in 10.0 mi NNE 10.4 mph 17.3 mph N/A   Clear
6:53 PM 77.0 °F 43.0 °F 30% 30.07 in 10.0 mi NNW 5.8 mph - N/A   Clear
7:53 PM 75.0 °F 44.1 °F 33% 30.07 in 10.0 mi NNW 8.1 mph - N/A   Clear
8:53 PM 72.0 °F 45.0 °F 38% 30.08 in 10.0 mi North 6.9 mph - N/A   Clear
9:53 PM 68.0 °F 48.0 °F 49% 30.09 in 10.0 mi NNE 5.8 mph - N/A   Clear
10:53 PM 64.0 °F 48.9 °F 58% 30.10 in 10.0 mi NNE 3.5 mph - N/A   Clear
11:53 PM 61.0 °F 50.0 °F 67% 30.10 in 10.0 mi Calm Calm - N/A   Clear